Theta_e
309 309 309 309 309 309 309 309 309 309 309 309 309 309 309 310 310 310 310 311 311 311 311 311 311 311 311 311 312 312 313 313 313 314 314 314 314 315 314 314 314 314 314 314 313 313 313 314 314 314 315 315 315 316 316 318 316 318 328 325 318 320 321 321 326 319 316 320 316 314 315 314 316 315 314 315 315 314 315 315 315 316 315 315 314 314 314 314
309 309 309 309 309 309 309 309 309 309 310 310 310 310 310 310 310 310 311 311 311 311 311 311 311 311 311 311 311 312 313 313 314 314 314 314 314 314 314 314 315 315 314 315 314 313 313 313 314 314 315 314 315 316 316 318 315 321 326 318 322 331 321 316 319 315 314 317 314 314 314 313 315 314 314 315 315 314 314 315 315 315 315 315 314 314 314 314
310 309 309 309 309 309 309 309 310 309 310 310 310 310 310 310 310 310 311 311 311 311 311 311 311 311 311 311 311 312 312 313 314 313 314 314 314 314 315 315 315 315 315 315 314 313 314 314 315 314 315 314 315 317 317 318 316 317 318 320 331 326 314 313 315 315 315 315 314 314 313 312 314 314 313 314 313 313 314 314 314 314 315 315 315 314 314 314
310 310 310 309 309 309 309 309 309 310 310 310 310 310 310 310 310 310 310 310 310 310 311 311 311 311 311 311 311 312 312 314 315 313 314 314 315 314 315 316 315 315 315 314 314 314 313 314 315 314 315 315 315 316 316 317 317 315 317 326 327 313 313 317 314 316 315 314 314 313 313 313 314 314 313 313 314 315 313 313 314 314 313 314 315 314 314 314
311 311 310 310 310 309 309 309 309 310 309 310 310 310 310 310 310 310 310 310 310 310 311 310 311 311 311 311 311 311 313 316 316 313 314 314 314 314 315 316 315 315 315 314 314 314 313 314 314 314 315 315 315 315 315 316 316 317 318 320 316 311 316 318 315 317 315 314 314 312 313 314 314 313 313 313 314 315 313 313 313 313 313 313 314 314 314 314
312 311 311 310 310 310 310 309 309 309 309 310 310 310 310 310 310 310 310 310 310 310 310 310 310 311 310 311 311 312 313 316 315 313 314 314 314 314 315 316 315 316 315 314 314 313 314 314 314 315 314 314 314 314 314 316 315 318 319 314 314 314 315 317 316 316 314 314 313 312 313 312 312 312 312 312 313 314 313 313 313 312 313 313 313 313 314 314
312 312 311 311 310 310 310 309 309 309 309 309 309 310 310 310 310 310 310 310 310 310 310 310 310 311 311 312 312 314 315 315 314 314 315 315 315 315 315 316 316 316 315 314 313 313 313 314 314 314 315 313 313 313 313 315 314 318 320 314 314 314 313 315 314 314 313 313 313 313 312 311 312 313 313 312 312 312 312 312 312 312 312 312 312 313 313 313
311 311 311 311 311 310 310 310 310 309 309 309 309 309 309 310 310 310 310 310 310 310 310 310 311 311 312 314 315 316 317 316 316 317 317 316 316 316 316 316 316 316 315 314 313 313 313 314 314 314 314 313 312 312 312 312 314 317 320 314 312 313 313 314 313 314 314 313 313 312 311 311 312 312 311 311 312 312 311 312 312 312 312 312 313 313 313 313
309 310 310 311 310 310 310 309 309 309 309 309 309 309 310 309 309 309 309 310 310 310 310 311 312 313 315 316 316 318 317 317 318 319 319 319 318 317 317 317 317 316 314 314 313 313 314 313 314 314 313 312 312 312 311 313 315 315 315 313 311 312 312 313 313 313 313 313 313 312 311 312 311 312 311 310 311 311 311 312 312 312 313 314 313 312 313 312
308 308 309 309 309 309 309 309 309 309 309 309 309 309 309 309 309 309 310 310 311 312 313 314 315 316 317 317 317 318 318 319 320 321 321 321 320 320 320 319 318 316 315 314 314 313 314 313 314 314 313 313 312 312 311 313 314 312 312 312 312 312 312 313 313 313 312 312 312 312 313 311 310 313 314 311 310 311 312 312 312 312 313 313 313 312 312 312
306 307 307 308 308 308 308 308 308 308 308 309 309 309 309 309 310 310 312 313 314 315 316 317 318 317 316 316 315 317 318 319 320 320 320 319 320 320 320 320 318 316 315 315 316 315 314 314 314 314 314 314 313 312 312 312 313 312 311 313 312 311 312 313 313 312 311 312 312 311 312 310 309 312 313 310 310 311 312 312 312 312 312 312 312 312 312 312
307 306 307 307 307 307 308 308 308 308 308 309 309 310 310 311 313 314 316 317 317 317 317 317 316 315 315 314 314 317 318 318 318 318 318 318 318 318 319 319 317 315 314 316 317 317 316 315 314 314 315 314 313 313 313 312 312 312 311 314 315 313 314 313 311 311 311 313 312 311 314 316 316 313 310 309 310 311 311 312 311 311 311 310 311 311 311 311
307 307 307 307 307 307 308 308 309 309 310 311 312 313 315 316 317 317 318 317 317 316 316 316 315 315 314 314 316 318 317 317 317 317 317 316 316 316 317 317 316 315 315 317 317 317 316 315 314 315 315 313 314 313 313 311 311 313 311 312 315 316 319 313 308 310 311 312 311 311 318 326 325 313 308 310 310 311 312 310 310 310 310 309 310 310 310 310
308 308 308 308 309 309 310 310 311 312 313 315 316 317 318 318 317 317 317 316 316 315 315 315 314 315 315 315 317 317 317 317 317 317 316 316 315 315 316 315 315 315 316 316 316 316 316 315 314 315 314 314 313 312 314 313 313 315 310 314 318 315 323 318 308 310 313 313 311 312 318 325 325 311 307 311 310 311 311 308 308 308 308 308 308 309 309 309
309 309 310 311 311 312 313 314 315 316 317 318 318 317 317 316 316 316 315 315 315 315 315 315 315 316 314 315 316 316 316 316 316 317 316 315 315 315 316 316 316 315 316 315 315 316 315 315 315 315 314 313 314 315 319 320 322 321 313 322 324 315 323 323 309 308 313 312 309 313 319 321 320 310 306 310 310 311 310 307 308 307 307 307 307 307 307 307
310 311 312 314 315 315 316 317 317 318 318 317 317 316 315 315 315 314 315 314 314 315 315 316 316 315 314 315 316 316 316 316 316 316 315 315 315 315 315 315 315 315 315 315 315 315 315 316 314 313 313 312 316 324 326 322 325 324 316 321 325 318 319 320 312 308 309 311 310 312 317 318 317 309 306 310 310 311 309 306 306 306 306 306 306 306 306 306
312 313 315 316 317 317 318 317 317 317 316 316 315 314 314 313 313 313 314 314 314 316 316 317 316 315 316 316 315 316 316 316 316 316 316 315 315 315 315 314 315 314 315 314 314 315 315 315 313 314 313 310 315 323 324 321 323 324 316 315 320 318 316 318 318 311 307 312 313 312 313 315 316 309 307 310 309 309 308 304 305 304 305 304 304 305 305 305
314 315 316 317 317 317 317 317 316 316 315 314 313 313 312 313 313 314 315 315 315 316 316 316 315 317 318 316 315 316 317 316 316 316 316 315 315 315 315 314 314 314 314 313 313 314 314 312 312 316 315 311 313 318 321 322 324 326 321 317 319 317 315 317 318 313 310 314 314 314 314 315 317 311 306 308 308 308 305 303 303 303 303 303 303 304 304 304
315 316 316 316 316 316 316 315 315 314 314 313 312 312 312 313 314 315 316 317 316 317 318 317 316 318 319 316 315 316 316 316 316 316 315 315 315 314 314 314 314 314 312 313 313 312 312 312 312 316 316 314 314 316 318 320 321 324 323 322 323 320 318 317 316 312 309 313 315 314 314 316 317 313 306 305 306 305 303 302 302 302 302 302 302 302 303 303
315 315 316 315 315 314 314 314 313 313 312 312 312 313 315 316 317 317 317 316 316 316 317 317 316 317 317 316 316 316 316 316 316 316 315 315 315 314 314 313 313 312 313 317 316 311 311 315 316 317 317 316 315 313 315 316 316 317 317 319 320 319 318 316 316 313 308 312 318 315 314 316 316 313 305 303 305 303 302 302 301 301 301 300 301 301 301 302
315 315 315 314 314 313 312 312 312 312 311 311 313 315 317 317 319 319 318 318 317 317 317 317 317 317 317 317 316 316 316 316 316 316 316 315 314 314 313 312 313 315 313 313 313 310 311 316 318 317 315 314 314 312 311 312 313 314 314 315 316 316 316 314 313 313 309 311 318 315 314 316 315 311 304 302 304 303 301 301 300 300 299 299 300 300 300 301
315 315 314 314 313 311 311 311 311 311 311 312 314 316 317 317 318 318 318 319 319 318 318 318 318 318 318 317 317 316 316 317 317 316 316 315 314 313 313 314 317 318 313 310 313 313 313 316 317 314 311 311 312 311 311 311 311 312 313 313 315 315 316 316 314 313 311 312 318 317 314 315 313 307 302 301 301 301 300 300 299 299 299 299 299 299 300 301
316 314 314 313 312 311 311 311 311 311 311 313 315 316 317 318 318 318 319 320 321 320 319 320 319 319 319 318 318 317 315 316 317 316 316 315 314 313 313 314 317 319 314 314 317 317 318 320 315 310 309 311 313 313 313 312 311 313 314 313 316 315 316 321 318 314 313 311 314 316 313 313 311 305 302 301 300 300 299 299 299 299 299 298 298 299 300 301
315 313 313 313 312 311 310 311 312 313 312 314 315 317 318 318 320 321 320 319 321 321 319 321 320 319 320 319 318 318 316 316 317 316 316 315 314 313 313 313 315 317 315 315 316 317 320 319 310 308 312 313 313 313 313 314 314 316 316 314 316 316 316 319 317 314 316 314 312 312 315 320 317 311 307 302 300 300 299 299 298 298 298 298 298 299 299 300
314 313 313 312 312 311 311 314 314 313 313 314 316 317 319 320 321 321 320 321 323 321 319 320 320 320 320 319 320 318 316 317 317 317 316 315 314 314 312 312 314 317 316 314 314 315 317 313 309 313 315 313 314 315 316 316 316 318 319 316 315 316 316 317 315 314 318 320 313 310 320 330 324 319 312 304 302 302 299 298 297 297 298 298 298 298 299 300
314 313 312 312 311 311 315 316 314 312 316 316 316 318 320 322 321 319 321 326 327 322 319 320 320 320 319 319 318 317 319 319 316 318 317 314 314 314 314 312 312 316 315 313 313 315 315 311 311 316 316 315 315 316 317 315 316 319 319 316 314 313 314 316 315 315 320 322 312 308 317 326 326 324 315 305 305 303 299 298 297 297 298 298 298 298 298 299
314 313 312 312 311 313 317 317 314 315 318 318 317 319 321 320 320 318 321 327 327 322 320 319 318 318 317 316 316 319 323 320 314 315 315 314 314 313 317 315 312 313 311 312 317 317 315 312 312 314 315 317 316 317 317 314 318 322 317 316 317 315 316 317 316 316 319 319 315 314 314 316 321 320 310 304 307 304 301 300 297 297 297 298 297 298 298 299
313 312 312 312 311 314 316 316 316 316 318 318 317 320 321 320 319 319 324 331 327 319 318 317 314 315 315 315 316 317 318 315 315 315 312 313 313 312 316 316 315 316 309 313 324 318 312 315 316 315 316 316 316 319 317 313 319 320 313 313 317 316 319 319 317 318 315 313 320 322 315 314 322 319 306 304 308 306 304 303 299 297 297 297 297 298 298 299
312 312 312 311 311 315 317 318 318 317 317 319 319 321 321 320 319 320 325 329 324 317 316 315 313 312 313 314 313 312 311 311 314 314 311 312 313 311 314 313 312 314 308 311 323 318 310 311 313 315 318 317 317 316 312 314 318 312 308 313 315 315 318 319 320 320 315 314 321 323 316 316 324 323 311 307 310 311 308 304 300 297 297 297 297 298 298 298
312 312 312 311 312 315 318 318 317 318 319 320 321 321 320 319 320 324 325 327 325 317 313 313 312 311 312 314 313 310 309 310 311 311 310 311 311 310 312 311 309 313 312 312 318 316 309 307 308 313 315 314 313 309 305 310 311 306 311 320 318 317 318 318 320 318 315 320 322 318 315 314 319 325 318 312 311 310 308 305 300 297 297 297 298 298 298 298
312 312 311 311 312 315 318 317 316 319 321 321 322 320 319 319 321 328 328 325 324 318 312 313 311 310 313 316 315 311 308 309 308 311 312 310 311 310 311 312 311 316 318 315 316 314 310 309 309 310 309 308 312 310 305 305 305 308 319 323 319 319 318 318 320 317 318 325 321 313 312 312 317 323 317 310 307 304 304 305 301 297 297 297 298 298 297 297
312 311 311 312 312 314 317 317 317 320 321 321 321 318 320 322 323 328 326 321 325 321 315 316 311 310 313 314 315 312 310 310 308 311 313 311 313 312 313 315 316 320 320 317 318 316 314 315 311 308 308 309 316 317 309 307 309 314 320 321 321 322 320 321 322 318 320 322 314 311 313 313 317 320 314 310 306 301 300 300 299 298 297 298 298 298 297 297
312 312 312 313 314 316 317 317 318 321 321 320 319 317 320 324 326 327 323 322 325 319 315 316 313 312 314 313 313 311 311 313 309 310 311 311 313 313 312 314 314 320 321 315 316 317 318 318 311 310 311 310 315 318 315 315 313 314 318 321 322 322 324 328 324 317 318 316 310 309 312 315 319 317 311 308 304 297 296 298 299 299 299 299 299 297 297 297
313 312 313 314 315 317 318 318 319 321 321 319 318 318 321 325 327 327 324 323 322 317 315 315 312 312 313 314 315 312 312 313 310 310 311 311 313 314 314 312 310 318 321 315 314 317 320 321 316 315 314 311 313 314 318 320 314 313 316 318 320 323 326 328 326 322 319 317 313 309 312 322 323 313 303 300 298 295 297 298 299 300 299 299 298 297 297 297
313 313 314 314 316 317 319 319 320 321 322 319 318 320 322 324 326 327 325 322 321 319 316 314 312 312 313 314 315 313 312 313 311 311 312 312 315 316 317 314 311 316 320 316 317 315 317 322 319 312 309 310 312 310 311 316 315 312 312 315 318 321 323 320 317 317 316 317 316 313 316 322 316 304 297 297 296 295 296 297 298 298 298 297 297 296 297 297
314 314 314 315 315 316 318 320 320 321 321 319 319 321 322 324 325 325 324 321 320 318 314 315 316 315 314 314 314 312 311 314 313 312 312 313 315 315 317 316 311 312 316 318 320 317 316 322 317 309 308 308 309 309 308 312 316 312 311 317 317 314 320 320 312 309 310 315 317 315 318 317 309 305 300 298 298 296 295 295 296 296 296 296 296 296 297 297
314 314 315 316 315 315 317 319 319 320 320 319 321 322 321 322 322 322 322 319 317 315 315 318 318 317 316 315 315 315 314 315 313 312 313 314 314 314 316 317 311 309 313 316 319 320 321 324 317 311 312 309 304 307 307 306 311 315 315 317 313 311 318 321 316 314 315 317 317 315 317 316 315 314 305 299 300 299 296 295 295 295 295 295 296 297 298 299
315 315 316 318 318 316 316 317 319 320 319 319 322 322 322 322 318 317 319 316 314 316 320 323 320 317 318 316 317 317 316 316 314 313 315 315 316 315 315 317 311 308 310 310 314 318 317 322 318 310 312 311 306 310 313 307 307 313 314 312 312 316 319 317 317 319 318 319 320 317 313 313 316 316 311 309 307 302 298 296 295 294 294 295 297 298 298 298
317 317 317 318 319 318 317 317 319 319 319 320 321 320 321 322 317 315 316 316 317 320 322 324 323 320 319 318 319 317 315 316 314 314 317 315 316 314 312 315 313 308 308 309 314 317 314 318 320 311 309 312 310 313 317 314 308 308 309 309 311 316 319 318 317 318 319 319 320 318 314 314 316 316 318 318 310 301 298 297 296 295 295 296 298 298 298 298
318 317 317 318 319 319 318 318 319 319 320 321 320 318 318 319 318 316 315 316 319 319 322 326 326 323 321 319 320 318 317 317 314 315 319 316 316 315 312 315 315 310 308 308 312 316 313 315 320 314 309 311 314 315 315 315 312 311 313 313 313 313 315 317 315 315 318 320 320 319 315 317 316 310 313 316 307 299 298 298 296 295 296 297 299 299 299 300
318 316 316 317 318 319 318 318 317 318 319 321 320 318 318 317 318 317 316 316 317 317 319 324 325 323 322 321 320 320 319 319 316 317 319 316 317 317 313 313 314 312 311 311 313 316 315 316 320 318 314 315 317 313 309 311 312 312 314 314 315 314 315 317 315 314 315 316 319 318 316 318 314 305 307 310 303 298 298 297 297 296 297 298 299 299 300 301
317 316 314 315 317 318 317 316 316 317 319 320 319 318 317 317 317 318 316 315 317 317 317 320 323 323 322 321 321 321 321 320 318 318 319 318 319 318 313 309 309 311 314 316 315 314 312 316 319 319 317 317 314 307 303 306 309 311 313 315 315 315 316 318 317 315 315 313 313 314 316 316 309 301 302 303 299 298 298 297 297 297 298 298 299 300 301 301
316 315 313 314 316 316 316 316 316 317 318 317 318 318 317 316 317 317 316 315 316 317 318 319 319 319 320 320 319 320 321 320 319 318 320 320 318 315 310 309 310 311 314 317 316 312 311 315 317 317 317 315 312 309 305 306 309 312 313 314 314 315 317 316 315 316 317 315 314 314 316 315 307 298 298 298 297 297 298 298 297 297 298 299 299 300 301 301
314 313 312 314 314 314 315 317 317 318 318 316 317 317 316 316 316 316 317 316 316 317 319 320 318 317 319 319 319 319 319 319 319 317 319 319 315 309 307 309 311 312 314 317 317 314 315 317 317 318 319 317 315 314 312 311 313 314 314 312 312 316 316 314 313 314 315 315 316 315 315 315 309 300 298 297 297 297 296 297 298 297 298 299 299 300 301 301
313 312 311 312 313 312 313 314 315 317 317 317 317 317 316 315 315 316 316 316 315 316 318 318 316 316 317 316 316 317 317 319 320 317 316 316 312 307 306 308 310 311 312 313 315 316 317 317 316 317 319 318 318 318 316 316 315 314 313 312 311 314 314 314 314 314 314 314 314 314 315 315 309 304 303 302 301 301 299 297 298 298 297 298 299 301 301 301
310 310 310 309 310 311 311 311 311 313 316 316 317 316 317 316 314 313 315 316 315 314 315 315 314 315 317 315 315 317 316 316 318 317 316 316 313 307 304 306 307 308 310 311 312 315 315 314 314 316 317 317 318 317 314 314 316 316 315 314 313 312 311 313 315 315 315 314 313 313 314 315 312 309 308 307 305 306 303 297 297 298 298 299 300 301 301 300
308 309 308 309 310 310 309 309 310 311 313 314 315 315 316 316 315 314 315 315 314 314 314 313 314 316 317 315 316 317 315 315 315 315 315 316 314 307 304 304 305 307 308 309 310 313 313 312 312 314 315 315 316 315 312 312 314 315 314 313 312 310 309 311 313 314 315 314 314 314 312 314 314 311 311 311 308 307 302 298 298 299 299 299 300 300 300 299
307 307 306 308 310 309 309 309 309 310 311 311 312 313 313 314 314 315 315 313 312 314 315 313 314 316 316 315 316 316 315 315 314 313 314 314 312 309 306 305 305 305 307 306 307 310 313 314 313 312 312 313 312 312 311 311 311 311 312 312 311 309 309 309 310 311 313 314 313 312 311 312 312 310 312 311 307 305 303 301 301 301 300 299 299 299 299 299
305 305 305 306 307 307 307 309 309 309 309 309 309 310 311 312 313 313 314 313 312 313 314 313 313 314 315 314 315 315 314 315 314 313 313 313 312 311 311 310 306 304 305 307 306 307 311 314 312 311 312 310 308 307 307 308 309 310 310 311 310 309 307 307 308 309 309 310 309 308 308 309 308 308 309 307 303 302 303 303 302 301 299 299 299 299 300 300
304 304 304 305 305 304 305 308 309 308 308 308 309 309 309 310 311 312 313 313 313 313 313 313 313 313 314 314 313 313 312 314 315 314 313 313 312 311 312 313 309 304 304 307 307 306 309 312 310 309 311 308 303 303 304 305 307 308 310 310 309 307 305 305 306 306 306 307 307 306 306 307 305 303 304 303 302 302 302 302 302 301 301 300 300 300 300 301
304 304 304 304 305 304 304 306 308 308 308 308 309 309 309 309 310 312 312 311 312 313 313 313 313 313 313 313 313 312 311 312 314 314 313 313 312 311 311 312 310 307 306 307 308 308 308 308 307 308 313 309 302 301 302 302 303 305 307 307 305 306 306 305 305 306 306 307 307 306 306 307 304 300 300 301 300 299 300 301 301 302 302 301 301 301 301 301
303 303 303 304 305 305 304 306 307 308 308 309 308 309 310 310 309 310 311 310 309 310 311 312 313 313 312 312 313 312 311 311 310 309 309 309 308 309 309 308 307 309 308 306 307 308 308 308 308 309 312 309 301 300 302 303 305 307 306 305 304 303 304 304 303 304 304 305 306 306 305 305 302 299 300 301 298 296 297 299 300 300 301 301 301 301 301 301
Wind_Speed
8 8 8 8 7 7 7 6 6 6 6 6 6 6 6 6 6 6 6 6 6 7 7 7 8 8 9 10 10 10 10 12 13 14 14 12 7 2 4 4 2 2 2 3 2 2 2 2 2 1 1 1 2 1 2 2 2 2 3 3 0 2 3 5 7 6 3 3 4 5 8 4 5 9 10 11 12 10 12 14 13 14 12 9 11 13 14 14
10 10 10 9 9 9 8 8 8 7 7 7 7 7 7 7 7 7 7 7 8 8 8 9 9 9 10 10 11 12 12 13 14 14 11 5 3 6 6 3 4 4 3 3 3 2 2 2 2 1 0 0 1 1 1 2 3 3 3 2 2 5 5 5 7 6 3 3 6 7 8 5 6 9 9 8 10 11 11 17 15 11 12 11 12 15 14 12
12 12 11 11 11 10 10 10 10 9 9 9 9 9 9 9 9 9 9 9 9 9 10 10 10 10 11 11 12 13 13 15 15 9 1 5 8 7 4 5 7 7 6 5 4 4 3 2 2 1 1 0 1 1 1 2 2 2 3 1 5 6 4 5 6 7 6 6 8 8 7 7 10 9 6 5 9 12 8 12 12 8 16 18 14 13 11 8
14 14 13 13 12 12 11 12 11 11 11 11 11 10 10 10 10 10 10 10 11 11 11 11 11 11 11 12 12 13 14 15 10 3 7 7 5 3 2 7 9 8 7 6 4 4 3 3 3 2 1 1 1 1 1 1 0 1 3 3 4 3 1 6 6 7 7 6 7 7 7 10 12 8 7 5 6 11 8 7 9 11 19 19 12 11 11 8
16 16 15 14 14 14 13 13 13 13 12 12 12 12 12 11 12 12 11 12 12 12 12 12 12 12 12 12 12 13 12 9 1 8 7 5 3 4 4 8 10 8 7 6 4 4 4 4 3 2 0 1 1 1 1 1 2 2 4 4 4 4 2 6 6 6 6 5 7 7 7 9 11 11 11 6 4 9 9 10 15 17 17 13 11 10 9 7
17 17 17 16 16 15 15 14 14 14 14 14 13 13 13 13 13 13 13 13 13 13 13 13 13 12 12 12 13 13 8 3 3 5 5 6 7 9 9 11 11 8 7 5 4 4 4 5 3 2 1 2 0 1 0 2 4 2 3 4 4 5 5 9 9 8 8 7 8 8 9 11 12 14 14 11 12 15 16 16 16 13 9 7 8 7 6 7
19 19 18 18 17 17 17 16 16 16 15 15 14 14 14 14 14 14 14 14 14 14 14 14 13 12 12 13 13 12 9 10 10 9 11 11 12 13 13 14 12 8 6 4 4 4 5 5 4 3 2 2 1 2 1 2 4 3 3 4 4 6 8 10 11 12 12 12 14 12 12 14 11 9 11 13 14 13 11 8 6 5 5 5 4 5 7 8
20 20 19 19 18 18 18 17 17 17 16 16 15 15 15 15 15 15 14 14 15 15 15 14 13 13 13 13 13 11 13 15 13 12 14 13 14 15 15 14 11 8 6 4 4 4 5 6 6 4 2 1 2 3 2 1 2 4 4 4 3 6 9 12 14 16 16 15 16 13 12 17 13 10 11 12 10 8 5 3 4 3 4 5 6 7 7 7
21 21 20 20 19 19 19 18 18 18 17 17 16 16 16 16 15 15 15 15 15 15 15 15 14 15 13 13 11 9 13 14 10 10 11 11 13 13 14 13 10 8 6 5 4 5 6 5 7 7 3 2 3 2 2 2 3 4 4 4 5 9 13 15 16 17 15 13 13 8 11 16 9 6 6 4 7 7 4 3 3 2 3 6 7 7 6 5
22 22 21 21 20 20 20 19 19 18 18 18 17 17 16 16 16 15 15 15 15 15 15 15 15 14 13 13 8 5 10 10 6 7 7 8 9 10 11 10 10 9 7 6 4 5 6 5 5 6 5 3 3 2 3 3 2 2 3 6 9 13 15 15 17 19 15 13 12 7 9 11 3 1 2 5 8 5 3 2 4 2 3 4 4 5 6 6
21 21 21 21 21 20 20 19 19 18 18 18 17 17 16 16 15 15 16 15 16 15 15 15 15 14 13 12 10 8 10 9 7 7 7 8 8 8 9 9 9 9 8 6 4 4 5 6 5 5 4 2 3 2 3 3 2 3 5 8 10 12 14 15 16 17 10 7 7 6 6 5 0 2 1 5 8 4 2 5 4 2 3 2 2 3 5 6
21 21 21 21 20 20 20 19 18 18 17 17 17 17 16 16 16 16 16 16 16 15 15 15 14 13 12 12 16 16 14 13 12 11 11 11 11 10 10 10 10 9 9 7 5 5 6 8 8 6 4 3 2 0 2 2 2 4 5 5 9 10 10 11 8 5 1 2 2 2 3 5 3 3 5 9 7 4 5 7 5 4 4 3 3 3 3 5
21 20 20 20 20 19 19 18 18 17 17 17 16 16 16 16 16 16 16 16 15 15 14 14 13 13 11 12 18 18 16 17 17 17 16 15 14 12 11 10 11 10 10 9 8 8 8 9 10 8 5 4 2 1 1 1 2 4 3 2 6 8 7 5 1 1 1 2 2 3 2 6 7 2 8 12 8 6 7 8 6 6 5 4 4 3 3 4
20 19 20 20 19 19 19 18 18 17 17 17 17 17 17 16 16 16 16 15 15 14 14 14 13 12 11 13 16 16 16 16 15 15 16 16 13 11 11 11 11 11 10 10 9 8 7 8 9 7 5 3 2 2 1 4 3 2 2 2 3 2 6 5 1 1 0 2 4 5 2 6 8 0 8 14 11 7 8 9 7 6 6 5 4 4 4 5
20 20 20 20 20 19 19 19 18 18 18 17 17 17 17 16 16 16 15 15 14 14 13 13 12 10 9 13 15 15 15 16 15 15 15 14 13 11 12 12 12 12 11 10 7 6 6 7 8 5 3 3 3 3 2 5 3 2 1 3 3 1 6 9 5 2 1 1 3 5 2 6 9 1 7 16 12 8 9 10 8 7 7 6 5 5 5 5
20 20 21 21 21 21 20 20 20 20 19 18 17 17 16 16 16 15 15 15 14 13 12 11 11 9 6 10 13 12 13 13 14 14 15 15 13 12 12 11 11 10 9 8 7 7 7 6 5 3 2 3 3 4 4 4 4 3 0 4 3 2 4 7 4 1 1 1 2 1 2 4 6 1 10 18 12 8 10 11 9 8 7 7 6 5 5 4
21 21 22 22 22 22 21 21 21 20 19 18 17 16 16 15 15 15 14 13 13 12 10 8 7 7 8 11 12 12 12 12 12 12 13 14 13 11 10 9 9 9 8 7 7 7 7 6 4 2 1 3 3 4 3 3 4 3 0 3 4 3 2 4 4 4 5 3 2 3 1 5 9 6 15 18 10 8 11 11 9 9 8 8 7 6 6 5
22 22 23 23 23 23 22 22 21 20 19 17 16 16 15 14 14 14 14 13 12 9 8 9 6 2 8 14 13 11 10 10 11 11 10 11 11 10 9 9 8 9 7 6 6 7 7 4 3 1 2 2 3 5 3 5 5 4 3 3 4 3 3 4 5 3 6 5 3 3 3 8 11 8 14 15 8 8 12 11 10 10 9 9 8 8 8 8
24 23 24 24 24 23 22 22 21 20 19 17 16 14 14 13 12 13 14 13 11 7 4 9 11 4 3 7 10 10 9 8 9 10 10 10 10 10 9 8 7 9 9 5 4 6 6 3 3 1 1 3 5 7 9 9 7 6 5 5 4 4 5 5 6 4 2 4 5 5 6 8 10 6 10 11 8 11 13 11 11 11 10 10 10 10 9 10
25 23 24 24 24 23 22 22 20 19 18 16 15 13 12 10 6 8 13 16 19 17 11 11 14 12 7 5 5 7 7 7 8 9 10 9 11 11 10 9 8 7 5 4 3 3 5 3 3 5 6 7 9 11 9 4 5 4 3 3 4 5 5 4 5 5 0 0 6 5 4 8 7 4 7 6 8 12 11 11 12 11 11 11 11 11 11 11
25 24 25 24 23 22 21 21 20 19 18 16 16 13 10 9 5 4 7 12 18 20 21 19 17 17 15 10 6 6 7 7 7 9 10 11 11 10 9 8 6 2 1 3 4 2 4 4 7 9 7 7 7 7 5 1 3 2 2 3 4 4 6 6 4 5 1 2 5 1 2 9 5 3 6 5 7 8 7 9 10 10 11 11 11 12 12 12
24 24 24 23 22 21 20 21 20 19 18 17 18 16 12 11 10 8 6 7 12 16 18 20 22 23 22 18 14 11 8 6 8 11 12 14 15 11 9 7 4 3 1 4 4 2 1 4 10 10 4 4 2 3 4 4 3 1 2 1 5 4 3 6 4 4 2 2 4 3 4 7 1 4 6 7 7 7 8 8 9 10 11 12 12 13 13 15
25 24 23 23 22 20 20 20 19 20 20 19 19 18 15 12 10 10 8 6 10 16 18 20 23 25 26 24 22 18 14 11 10 13 14 16 17 13 9 8 4 3 3 4 5 3 3 6 10 9 6 5 1 4 7 4 3 3 4 3 5 3 0 4 4 4 3 1 2 3 5 6 1 4 4 7 9 11 11 11 11 11 11 12 12 13 15 17
27 24 23 23 21 21 20 19 20 21 21 20 19 18 15 12 9 8 7 4 6 11 16 20 21 23 25 23 21 20 19 17 12 12 17 20 18 11 8 8 5 3 4 7 7 6 6 6 2 3 5 7 4 3 6 4 2 4 5 6 5 4 5 6 3 4 3 3 1 2 4 6 1 1 1 5 8 10 10 10 11 10 11 11 12 14 16 18
26 24 24 23 22 21 19 19 23 23 20 20 19 17 14 11 8 5 3 3 5 6 9 15 16 18 22 20 18 17 15 15 14 12 16 22 20 10 5 7 6 4 6 6 5 5 8 6 3 4 3 5 6 4 5 7 3 4 5 9 10 7 7 5 2 4 3 4 3 3 3 5 4 3 3 3 4 5 6 8 9 8 9 10 12 14 16 18
26 25 24 24 23 21 17 19 24 22 20 20 18 16 14 10 6 3 1 3 4 4 4 9 10 10 13 14 16 14 5 7 13 14 16 20 21 12 5 5 3 3 6 6 3 3 4 3 3 4 4 5 5 4 5 7 4 2 4 7 9 7 5 4 2 2 0 2 2 3 1 4 5 5 3 4 4 4 4 6 6 6 8 10 12 14 16 18
28 26 25 26 25 23 21 20 22 22 19 19 18 15 13 10 7 3 3 3 5 5 7 7 8 8 9 11 16 14 2 3 10 13 17 19 19 14 7 4 3 2 5 5 1 3 2 2 2 4 5 5 5 5 6 8 7 3 4 4 6 6 6 5 5 4 2 2 3 3 2 3 4 4 2 4 5 3 2 2 3 5 7 10 11 13 16 18
29 27 27 27 27 28 27 20 19 22 20 17 17 16 13 12 10 6 3 3 4 5 5 5 8 9 10 15 18 11 3 6 7 8 16 19 17 11 6 6 7 4 4 6 3 3 2 3 3 6 5 5 6 5 7 10 5 4 3 6 6 6 6 5 6 3 1 2 4 4 1 2 5 4 2 2 2 1 2 3 2 4 7 9 11 13 16 18
29 28 28 28 28 29 28 21 18 21 20 15 16 17 15 15 10 6 3 4 2 4 3 6 8 7 11 15 11 5 4 4 2 7 14 15 13 7 3 6 8 6 2 2 4 3 1 2 5 7 5 5 5 2 7 9 3 4 6 6 5 5 5 4 5 3 2 2 4 6 3 2 5 4 2 1 2 4 5 5 4 6 8 10 12 14 15 17
30 29 29 29 29 30 28 26 22 21 20 17 16 18 19 16 8 4 3 5 2 3 3 7 6 6 11 11 3 1 3 2 4 10 9 8 9 5 5 6 6 6 1 4 1 3 0 1 2 4 4 5 5 2 2 3 4 8 6 6 6 5 5 3 2 4 3 2 6 6 4 3 3 5 2 2 2 4 5 4 4 7 10 12 13 14 16 17
30 30 31 31 33 33 32 31 27 23 21 19 20 23 20 9 4 3 7 2 2 2 4 4 2 5 10 7 3 2 3 2 5 9 5 3 5 4 5 5 3 4 2 4 2 4 2 1 2 3 4 6 7 4 3 3 5 7 4 4 4 3 4 4 4 3 1 5 5 4 2 4 3 5 3 4 3 2 4 5 7 10 14 16 16 16 16 17
32 32 32 33 34 34 34 32 26 24 24 21 24 25 16 4 1 6 5 2 1 3 4 4 2 5 6 3 3 4 3 2 3 5 4 3 4 3 3 4 4 3 2 4 2 3 2 4 2 1 4 5 5 4 4 4 4 4 4 5 3 2 3 3 3 0 3 5 3 2 2 3 5 5 3 4 3 2 4 5 10 16 20 20 19 19 18 18
34 33 32 33 34 34 34 31 25 26 25 24 25 18 7 3 7 9 7 2 2 3 4 4 2 5 7 4 2 3 3 2 3 3 2 3 3 4 3 1 5 4 1 4 2 0 2 4 1 3 3 7 8 5 2 1 1 4 5 5 3 2 2 2 3 2 3 3 2 2 1 1 5 4 3 4 4 4 6 8 14 22 24 24 23 21 19 19
35 34 33 33 33 34 33 30 27 27 27 28 23 10 2 7 8 6 9 6 1 2 3 4 5 6 6 4 3 4 3 2 4 4 2 3 3 4 4 3 3 3 3 3 2 4 2 4 3 5 2 6 8 5 5 5 4 3 3 5 4 4 4 3 3 3 3 2 2 2 1 3 4 1 2 5 5 4 5 7 15 23 24 24 23 21 20 20
34 34 34 31 34 37 34 32 30 28 33 31 18 6 7 10 5 4 8 6 1 2 3 3 6 6 3 2 2 4 4 3 4 5 3 4 4 4 4 5 6 4 4 3 2 2 3 4 5 2 1 6 6 4 6 6 2 2 2 4 2 4 4 2 3 4 3 2 3 2 2 4 4 1 3 3 3 2 1 7 16 21 22 23 23 22 21 21
33 34 33 32 37 40 36 34 30 29 36 30 11 7 11 7 3 4 4 5 5 6 6 3 3 4 3 2 2 5 4 1 4 4 2 3 3 4 4 5 8 7 5 5 3 2 2 4 5 2 1 2 3 4 4 3 3 2 2 3 4 4 6 3 2 1 3 1 3 2 2 3 0 1 3 2 3 2 2 7 16 20 22 23 23 23 22 22
33 33 34 37 40 39 37 37 32 32 34 22 7 9 7 2 3 4 2 5 7 9 9 3 3 4 5 4 4 6 4 2 4 3 3 3 3 5 5 4 7 12 11 6 2 3 4 2 5 1 2 1 1 4 5 4 4 4 3 5 3 2 4 3 1 2 3 3 4 0 3 3 1 1 2 2 1 2 3 6 11 16 19 21 23 24 24 24
34 34 36 42 42 38 40 40 37 38 30 12 7 10 3 2 3 2 2 5 7 7 6 5 5 4 5 5 4 5 6 4 4 4 4 3 3 5 6 4 6 12 15 8 1 2 4 1 5 0 2 1 2 4 4 5 4 4 4 3 3 3 1 2 2 1 1 3 4 2 2 3 4 4 2 4 7 7 6 6 8 13 19 23 26 27 26 25
37 32 29 40 44 41 42 42 43 42 23 5 8 9 2 1 3 2 2 2 3 6 6 5 4 2 4 6 4 5 6 6 6 4 3 3 3 4 5 3 4 6 10 9 4 1 3 2 4 2 0 1 2 2 3 2 2 4 2 1 2 2 3 2 2 2 2 2 3 4 2 3 5 5 6 8 10 10 10 8 10 15 23 28 30 31 29 27
35 21 14 28 37 39 41 41 40 31 12 5 10 6 2 2 3 4 4 3 0 3 4 5 5 3 4 4 3 4 4 5 7 5 3 4 3 3 3 2 4 2 3 6 4 1 2 2 3 3 2 1 1 2 5 6 3 3 3 3 1 1 2 1 1 2 3 3 2 3 5 5 4 3 6 7 8 11 14 12 12 18 27 32 33 33 31 28
30 11 5 17 23 30 37 31 22 13 5 8 11 6 4 3 2 6 7 3 1 1 1 3 4 4 4 4 3 4 4 4 6 4 3 4 3 2 2 2 5 5 4 4 3 2 2 3 3 2 1 3 4 4 3 4 3 3 4 5 5 4 3 1 3 1 2 2 3 3 6 6 3 2 3 4 5 10 15 14 15 24 33 35 35 34 31 28
23 6 2 9 13 23 29 16 6 6 5 7 8 7 7 5 3 7 8 4 1 1 2 2 3 3 3 3 2 3 4 4 4 4 3 4 4 3 4 4 6 7 6 3 3 2 2 3 2 2 4 4 5 3 3 4 2 3 3 3 4 4 4 5 6 3 1 1 2 2 3 5 2 3 3 4 5 10 16 17 18 26 33 35 35 34 31 28
14 5 3 7 13 22 21 7 3 7 4 4 6 7 8 6 4 6 7 5 2 0 1 1 1 2 3 2 3 4 5 3 4 4 2 3 3 2 6 9 8 7 5 3 2 1 2 2 1 2 2 2 3 2 2 2 2 2 1 1 4 3 2 3 4 2 3 3 2 2 4 4 2 2 3 4 5 9 16 21 21 24 30 34 36 35 33 29
10 7 6 10 17 22 15 4 5 8 4 4 6 5 6 5 6 7 6 6 4 2 2 1 1 2 2 3 4 4 6 4 3 3 2 3 3 4 8 10 7 4 3 3 4 3 2 1 2 1 2 2 2 1 1 1 0 2 1 0 1 2 4 2 1 2 2 5 6 4 6 5 1 1 1 1 3 6 13 21 23 23 27 32 36 36 34 31
8 5 6 11 17 17 8 1 1 4 4 6 7 6 5 3 5 9 8 6 6 4 3 2 3 3 3 3 3 3 5 4 2 3 3 2 2 2 5 8 7 5 3 8 11 7 3 2 2 3 5 4 3 2 2 1 0 0 1 2 3 4 5 3 1 3 5 4 7 5 7 4 2 1 1 1 3 4 10 17 20 21 23 29 35 37 35 32
5 2 3 6 10 11 6 2 1 1 2 4 5 5 8 4 2 6 7 6 6 6 3 1 3 4 3 3 4 4 5 3 1 3 4 3 2 1 2 5 7 5 5 11 14 8 3 1 3 6 7 6 6 4 3 4 3 3 5 6 7 7 7 5 3 4 5 3 4 7 5 1 3 2 3 3 3 5 8 12 18 21 24 29 35 37 34 33
3 1 3 2 3 5 5 4 3 2 0 1 2 2 6 6 2 2 5 4 5 7 3 2 2 4 4 6 5 5 6 4 3 3 3 3 2 1 2 2 3 5 5 8 10 7 4 3 7 10 12 11 7 5 4 5 6 8 9 10 10 8 7 8 8 6 5 4 7 7 5 3 7 6 6 7 6 5 7 12 19 25 27 30 32 33 32 31
3 2 4 4 1 2 4 4 4 3 1 2 1 1 2 4 3 3 3 1 2 6 3 2 1 3 5 6 4 3 5 4 4 4 2 2 2 1 1 1 1 5 7 5 5 5 3 4 6 8 12 10 3 2 4 4 4 4 5 8 9 8 9 11 10 7 6 7 9 3 7 8 9 5 7 8 8 9 11 16 21 23 24 25 27 28 28 28
5 2 3 5 2 1 3 3 3 4 4 1 1 2 3 5 5 3 2 2 1 2 4 2 4 4 4 4 3 3 4 4 3 3 2 3 3 3 1 0 1 4 5 4 3 3 3 3 3 5 7 5 2 1 2 3 3 2 5 9 9 8 9 8 7 5 5 7 7 1 4 9 7 5 7 7 6 8 11 14 16 18 19 20 23 26 26 25
7 5 4 4 2 0 1 2 3 3 5 4 3 4 4 5 5 3 2 4 3 2 5 7 6 5 5 5 5 5 6 5 4 4 5 4 2 2 2 2 2 2 2 3 2 2 3 2 2 3 3 2 2 1 1 2 3 3 8 12 7 5 6 6 5 3 1 4 7 5 8 11 5 5 6 7 5 7 11 13 14 15 16 18 21 24 25 24
11 10 8 4 2 2 1 1 3 3 2 4 4 4 4 5 6 3 0 3 5 3 6 9 7 4 5 6 9 10 11 8 6 6 9 8 6 7 7 5 7 6 3 3 2 2 4 2 2 3 4 3 2 2 3 3 2 3 13 15 8 6 6 5 4 5 6 7 8 6 9 10 3 5 5 8 10 11 14 16 16 16 16 18 21 24 26 26
15 14 12 6 2 4 5 2 3 4 3 4 5 4 4 5 5 6 2 4 5 5 7 9 7 4 3 7 10 13 13 11 8 7 7 7 6 7 8 8 11 9 6 5 2 2 5 4 2 3 4 2 2 4 4 4 2 7 12 11 11 10 7 3 3 7 9 8 6 7 9 7 2 5 5 7 9 11 14 16 17 18 19 19 22 24 25 25
Wind_Direction
254 252 248 246 242 239 237 236 235 234 234 234 234 231 229 231 233 239 246 253 262 272 279 285 291 294 298 301 305 309 313 316 315 316 317 311 298 225 154 140 100 44 35 22 5 326 287 272 264 279 296 8 18 28 47 44 59 43 86 94 9 190 197 184 183 192 174 282 289 336 343 323 299 317 321 313 300 299 300 293 292 293 298 308 315 321 318 317
253 254 254 253 250 248 246 245 243 241 241 240 241 240 241 244 245 248 254 260 266 271 275 279 286 291 296 300 304 309 313 314 312 312 316 314 144 128 116 86 11 348 346 346 331 301 288 276 263 279 352 33 19 23 64 38 53 68 106 97 242 202 209 201 189 198 189 290 292 308 319 295 288 306 322 312 298 314 312 303 308 313 324 332 328 326 321 320
249 250 252 253 253 251 251 251 248 246 246 245 246 247 248 252 252 255 259 261 265 270 273 278 284 290 294 299 303 309 315 316 313 309 322 123 126 119 83 20 351 331 323 321 304 284 272 239 237 261 274 29 17 20 59 38 46 69 98 108 246 218 233 246 228 234 252 292 296 302 308 296 300 305 305 294 303 310 296 299 308 318 327 329 334 333 324 322
247 247 248 249 250 250 250 250 249 248 247 248 248 249 250 253 254 256 260 261 266 270 274 278 283 288 292 296 302 308 318 322 311 202 151 142 138 143 7 350 339 324 317 314 292 275 259 226 237 270 269 35 7 1 33 5 29 140 140 178 227 184 254 268 267 277 281 291 283 293 309 305 311 310 285 291 322 305 294 312 312 314 319 321 333 333 326 327
247 247 246 246 247 246 246 247 247 247 246 247 247 248 249 251 254 257 260 263 267 271 274 278 281 286 290 294 300 306 325 340 309 156 164 196 223 252 289 329 328 318 318 310 276 256 246 233 241 259 264 10 18 33 311 225 141 177 209 222 212 157 234 284 302 313 305 296 285 294 304 303 310 303 286 278 257 276 299 318 310 311 313 316 329 329 331 340
248 248 246 245 245 245 245 245 246 247 246 247 248 249 250 252 255 258 261 265 269 271 273 276 280 284 288 292 295 302 315 317 228 188 217 251 263 270 281 309 314 306 313 308 260 244 236 231 235 217 111 29 291 213 296 186 173 210 258 261 248 207 240 285 302 310 305 297 290 290 294 298 303 302 297 276 259 278 297 303 304 310 316 322 330 336 360 13
249 248 247 246 245 246 246 246 246 247 248 248 249 251 253 255 257 260 264 267 269 271 274 275 279 281 285 289 291 297 284 267 271 260 258 260 263 269 275 290 294 288 305 304 243 226 231 227 218 189 119 47 248 214 165 190 190 182 266 287 286 253 255 286 300 299 295 290 289 292 291 289 288 294 301 292 293 310 313 312 323 333 347 357 9 33 34 23
250 250 249 249 248 248 247 248 248 249 250 251 252 254 256 258 260 262 265 267 269 271 273 275 278 279 283 286 289 292 276 275 281 267 261 255 254 261 266 277 278 272 288 288 241 213 231 232 219 206 154 188 218 206 180 234 221 177 234 279 282 269 278 297 300 295 292 291 293 294 281 281 283 277 284 300 325 6 26 20 21 5 6 16 24 38 36 22
250 250 249 250 250 249 249 249 250 250 252 253 255 256 258 260 261 263 264 266 269 270 273 275 276 278 280 281 284 288 280 284 283 262 257 252 251 255 260 267 262 260 270 269 245 220 230 232 226 225 225 234 206 205 160 174 261 201 223 276 282 287 296 301 296 292 294 293 291 286 279 286 296 284 280 347 29 38 22 20 59 30 0 4 4 11 16 15
249 249 248 248 248 249 249 249 250 251 253 254 256 258 259 261 262 263 265 267 269 269 272 272 273 274 274 272 265 264 279 282 268 253 254 255 254 253 255 255 250 255 260 253 240 234 239 239 239 229 237 248 183 185 156 160 266 253 276 291 285 292 299 298 290 288 291 290 280 255 271 288 297 253 268 46 45 31 354 61 84 30 5 14 357 350 354 355
248 248 247 246 246 246 247 248 249 250 252 254 256 258 260 262 263 264 266 268 269 270 271 270 271 269 268 265 237 233 270 270 254 253 254 257 255 252 252 246 244 246 243 237 230 244 251 245 240 215 223 219 169 205 213 213 284 315 322 305 295 307 305 290 283 286 288 286 273 226 254 296 256 205 179 45 43 48 63 82 82 56 60 64 26 3 349 347
248 247 246 245 245 245 246 247 248 249 251 253 256 258 261 263 264 265 267 268 268 268 268 268 268 266 265 261 247 250 266 264 260 260 256 259 259 257 255 244 239 234 231 236 246 262 262 244 232 220 218 182 160 281 219 225 309 316 347 322 306 335 321 287 277 286 231 237 275 188 278 315 261 196 82 53 48 36 40 70 79 84 88 88 69 29 360 352
249 248 248 247 245 245 245 246 247 249 252 254 258 260 262 264 264 265 265 265 266 266 266 266 266 266 262 257 259 263 265 262 263 263 261 262 261 257 250 239 232 227 233 248 264 268 254 238 229 225 221 185 177 176 179 33 359 304 7 19 319 347 325 291 110 112 141 250 220 139 288 286 269 202 71 35 23 11 31 64 69 79 85 75 66 31 22 6
249 248 248 247 246 246 246 248 250 252 254 256 259 261 262 262 262 263 263 263 264 263 264 265 265 264 255 255 266 268 262 259 258 257 258 258 255 248 238 231 229 235 249 259 262 255 238 226 222 219 214 201 183 153 342 5 23 311 350 24 350 345 283 295 356 212 327 282 184 146 211 262 278 11 57 16 13 19 46 73 68 73 73 60 61 40 31 19
248 247 247 249 249 248 250 252 253 254 255 257 258 260 261 261 261 260 260 260 260 261 262 263 263 262 259 262 266 265 260 256 252 250 251 252 247 237 232 231 237 245 252 250 237 222 209 205 205 200 187 186 156 113 9 351 14 14 334 308 334 183 267 309 323 209 199 302 139 134 197 269 280 185 45 9 11 25 55 77 69 69 69 60 58 44 40 33
247 247 248 250 251 251 253 253 255 255 255 256 256 257 258 259 259 258 258 257 258 259 259 261 259 252 260 269 264 261 259 252 248 247 245 246 242 235 234 234 237 238 232 222 207 195 185 183 182 170 160 156 127 91 45 354 337 357 178 251 274 212 277 320 333 22 101 71 65 74 218 283 282 193 21 8 16 34 65 79 69 73 70 64 59 52 58 53
246 246 248 250 251 253 253 253 254 254 253 254 254 255 256 256 256 255 254 253 254 254 254 254 252 252 256 260 259 256 255 249 244 242 239 240 237 231 227 218 216 215 206 197 193 187 181 175 163 167 105 92 106 95 63 322 287 308 34 232 248 219 242 299 311 1 40 68 28 359 214 262 273 307 5 13 30 53 80 84 75 80 73 70 69 61 63 57
245 246 248 249 250 251 251 251 251 251 251 250 250 251 251 251 251 251 250 249 246 248 256 234 209 275 261 244 245 252 254 245 236 232 229 226 218 212 208 204 205 196 177 169 181 178 178 166 137 143 31 61 118 114 150 231 221 215 192 207 249 232 229 260 273 327 23 19 350 332 272 269 275 312 13 26 45 71 89 90 83 84 79 79 75 67 66 63
244 245 247 247 247 246 247 247 246 247 246 245 245 244 245 247 248 250 247 240 225 215 243 214 194 191 243 235 243 249 248 233 223 221 216 208 200 195 191 186 182 173 155 147 174 166 160 120 99 178 222 181 182 170 198 217 196 193 186 170 198 228 243 245 250 265 12 355 304 266 254 269 276 311 16 31 62 84 92 92 86 85 83 82 78 75 73 70
243 242 242 243 242 241 241 241 241 241 240 239 234 232 237 236 242 255 240 233 232 229 236 228 215 220 234 266 259 230 219 212 213 216 208 200 195 187 175 165 156 156 149 149 172 156 148 144 181 219 211 194 203 203 210 208 144 152 163 169 200 225 263 259 258 283 69 18 273 242 235 266 270 320 5 26 74 77 80 85 83 84 86 85 83 82 79 77
244 240 239 238 237 236 235 236 235 234 233 230 223 220 223 214 210 254 240 242 249 244 244 247 244 240 243 255 247 211 206 212 220 218 209 198 189 179 174 163 140 153 221 131 121 103 131 174 224 231 212 192 204 208 221 260 108 119 188 246 262 228 253 259 257 301 12 167 262 264 295 275 270 18 10 37 70 56 64 85 83 87 89 89 89 87 87 89
245 239 236 235 233 231 230 230 229 229 226 221 217 217 220 221 225 246 264 273 268 255 249 247 246 246 245 243 238 229 219 222 229 217 206 194 187 187 179 162 143 176 188 113 104 75 126 218 240 238 189 134 121 144 173 206 195 218 190 238 276 239 269 283 285 335 19 168 263 347 332 278 278 63 32 52 72 66 78 93 91 94 92 90 92 92 97 100
244 236 233 234 231 226 224 224 225 224 222 218 218 219 224 232 237 250 268 283 276 262 252 246 244 245 244 241 238 233 225 228 232 217 208 196 189 191 178 157 151 150 148 175 169 158 201 242 246 231 170 149 163 119 129 148 193 218 190 199 258 236 294 279 290 339 7 115 266 344 325 285 91 87 57 68 90 86 86 93 92 94 92 89 94 98 101 102
239 232 231 233 228 222 219 219 221 222 221 218 219 219 224 233 237 256 267 272 283 262 248 245 243 243 242 239 236 231 227 230 231 218 210 199 185 181 186 171 146 149 192 198 185 190 230 242 217 139 143 171 197 150 138 157 221 240 207 205 235 225 210 231 285 336 346 19 13 14 329 297 297 99 85 92 99 88 84 89 86 88 94 98 103 104 103 102
236 233 233 231 224 217 212 217 222 221 219 217 218 215 216 225 228 249 273 294 287 262 246 239 235 239 236 233 230 222 223 229 227 219 208 200 188 173 179 177 164 200 203 176 174 223 255 245 158 103 105 160 179 195 184 176 205 283 232 211 222 225 221 235 335 10 6 358 351 26 353 293 317 318 219 159 96 72 74 76 77 88 102 110 109 106 107 106
236 236 231 225 218 205 201 220 225 220 217 218 216 209 209 211 199 202 101 22 285 236 195 207 211 221 218 217 208 193 209 240 220 213 201 197 197 185 162 165 161 208 178 144 156 224 255 256 168 166 164 158 179 230 219 169 146 290 251 208 215 211 194 205 162 94 131 255 315 32 118 260 315 319 238 161 93 60 62 56 68 99 109 115 114 111 113 110
237 235 228 220 208 195 197 217 222 214 213 216 210 200 200 189 163 139 86 349 275 189 149 172 175 181 192 187 175 168 188 199 181 196 191 189 196 191 185 175 134 189 163 130 182 237 187 81 77 150 162 170 198 239 218 161 137 236 246 156 163 173 178 185 158 160 221 248 328 2 135 242 291 292 273 130 112 58 42 33 54 110 120 124 122 121 120 115
233 228 222 214 203 199 202 210 215 209 208 211 203 193 184 171 159 124 99 279 262 135 133 164 156 165 171 165 164 158 137 141 141 185 184 181 188 184 198 202 168 173 164 145 212 258 145 155 185 162 156 193 211 225 188 159 151 242 208 122 131 149 156 147 127 150 288 35 318 301 153 240 269 273 346 92 148 272 243 229 217 152 143 138 135 131 126 120
227 221 217 210 203 203 204 206 210 206 205 204 194 186 170 157 148 98 92 239 206 109 122 151 146 152 149 153 168 153 116 120 108 167 170 175 185 175 179 196 160 139 128 147 210 248 122 201 200 154 158 207 209 231 183 170 185 190 137 96 80 81 86 88 106 118 56 56 251 251 193 202 272 283 344 59 250 245 218 212 203 180 164 153 148 142 133 126
221 216 212 207 204 204 204 208 206 199 198 195 187 177 161 151 131 103 218 233 159 105 122 145 155 154 141 143 172 147 120 74 101 138 148 162 174 152 123 148 128 120 58 5 255 247 41 139 192 159 181 182 144 89 135 157 148 137 112 64 52 39 42 43 57 87 66 279 245 243 217 181 266 281 233 176 219 206 184 178 185 189 180 168 160 151 141 132
218 214 208 206 206 204 205 209 205 194 189 188 182 170 158 142 92 174 215 231 82 111 113 135 171 148 147 146 166 162 103 61 126 136 131 132 150 130 119 132 103 90 13 332 287 305 342 132 245 214 176 134 104 70 48 64 106 117 97 75 73 354 13 25 360 45 106 255 258 264 238 162 208 261 226 192 205 192 186 181 180 189 186 175 167 159 149 138
215 211 207 207 208 207 207 210 205 191 185 182 178 168 153 134 216 212 219 63 128 197 149 163 198 155 156 118 117 155 117 112 154 135 130 131 153 175 162 169 159 96 335 247 240 338 289 232 258 176 182 159 117 77 51 27 47 92 101 96 90 337 10 2 313 301 223 244 259 264 204 173 229 245 210 199 214 230 242 215 189 186 183 177 171 164 155 146
214 208 208 209 209 210 210 211 203 192 185 177 173 165 132 180 214 213 211 191 201 193 129 133 122 131 145 128 148 170 123 160 181 143 131 115 144 216 258 207 159 125 137 199 186 21 281 289 269 129 220 198 165 138 151 189 128 148 147 127 129 116 76 289 267 274 268 248 240 251 168 212 265 261 207 225 251 257 260 238 201 189 181 175 172 167 160 153
216 209 210 212 211 211 212 209 199 193 186 172 166 160 154 217 215 188 189 206 257 74 85 106 106 111 139 157 211 181 136 197 172 132 118 111 129 215 246 240 183 114 97 145 174 172 189 293 211 173 204 187 180 176 158 143 138 177 166 133 144 152 158 219 221 214 251 271 277 273 184 192 216 229 228 249 279 288 266 224 195 190 183 176 173 171 167 160
216 210 211 215 215 211 210 207 198 193 187 173 162 168 200 217 223 167 180 186 134 82 55 77 107 115 170 226 260 201 186 218 163 125 134 157 168 193 195 210 201 157 129 163 219 161 159 256 250 246 117 158 177 185 128 111 119 214 134 113 155 181 155 171 194 176 186 298 296 237 226 218 188 188 301 287 321 9 155 174 175 182 183 179 178 177 172 166
213 212 213 219 219 212 210 207 202 200 191 177 167 198 202 216 200 170 177 151 152 146 111 84 95 109 192 222 244 224 217 183 153 143 168 180 198 200 195 216 197 180 166 162 197 159 126 272 282 8 58 140 171 177 125 118 180 160 125 170 214 180 120 115 228 78 84 269 272 200 243 289 339 314 315 348 5 31 116 158 168 175 180 181 183 181 176 171
210 212 214 221 221 215 213 209 206 210 202 186 194 213 207 243 180 174 192 140 141 142 132 159 190 154 184 196 200 205 192 146 157 161 182 192 216 194 200 239 190 186 199 185 203 198 144 268 287 120 143 317 101 126 76 52 118 124 180 205 193 130 92 102 217 1 44 244 274 228 223 261 229 261 312 12 292 243 204 180 175 178 181 185 188 185 179 176
208 212 217 223 222 216 214 211 209 213 212 201 223 225 219 250 204 181 194 152 133 137 151 190 191 166 181 188 196 186 172 175 174 168 172 190 241 181 169 216 188 193 208 195 190 249 140 234 290 329 150 297 37 102 73 21 67 118 185 177 109 138 151 94 161 236 253 247 285 297 240 238 206 201 213 206 207 204 197 192 189 189 189 191 192 188 184 183
210 210 218 226 224 217 216 214 209 209 212 213 222 223 196 201 242 266 243 211 144 151 172 188 173 144 174 174 169 167 170 174 166 171 175 170 221 188 158 187 183 201 210 182 169 233 126 171 273 316 170 212 31 95 170 221 42 69 94 94 64 153 169 151 152 171 203 239 285 298 292 258 230 201 186 199 198 181 180 192 199 197 195 194 193 190 189 188
211 206 217 225 223 222 220 215 208 204 206 223 218 216 157 187 248 240 238 284 352 158 186 186 165 151 167 167 161 161 160 162 162 175 194 172 186 201 181 155 136 141 176 158 163 184 114 169 241 299 324 167 169 208 192 191 174 125 143 171 197 126 124 189 240 114 134 177 225 279 284 270 251 198 184 203 196 179 183 187 192 198 197 196 195 192 191 188
209 206 220 212 216 220 214 208 204 199 208 222 220 221 196 184 213 216 223 253 335 47 138 157 146 148 156 152 170 172 142 145 167 174 191 189 179 186 196 153 143 146 112 113 170 202 164 165 183 207 195 180 225 245 203 199 193 167 184 190 183 164 127 170 249 197 117 174 182 212 272 274 251 199 192 204 198 193 194 186 186 197 199 198 198 195 191 189
200 193 197 200 210 208 199 191 188 199 214 216 215 216 195 170 171 203 215 227 251 15 51 87 105 139 155 149 156 160 141 145 178 179 189 198 186 174 173 150 141 142 123 126 197 210 133 124 144 208 209 214 249 255 179 196 182 139 192 194 163 153 140 170 222 224 138 202 147 132 266 277 254 216 221 227 219 206 201 195 194 200 200 200 198 195 192 193
191 175 164 206 210 196 190 191 192 197 216 197 189 193 184 176 174 183 198 207 195 84 97 85 124 164 171 158 145 158 165 167 172 173 186 197 190 166 155 148 137 130 120 141 189 138 90 116 159 272 303 309 305 325 133 143 110 138 224 160 150 174 164 176 205 168 156 200 147 115 251 258 262 239 239 243 229 206 201 202 204 204 203 202 199 196 195 196
193 185 182 200 197 188 189 211 196 196 206 166 170 180 182 188 179 171 184 194 182 150 142 159 230 192 162 138 138 164 183 184 171 173 184 184 176 148 150 156 157 145 135 158 161 152 158 148 136 173 298 318 323 344 341 359 53 209 241 256 175 131 95 87 97 109 218 206 159 179 245 243 247 253 213 152 166 188 203 207 209 209 207 204 201 199 199 200
187 190 187 195 196 195 203 309 169 197 193 165 171 179 178 194 198 185 179 175 173 157 146 189 196 161 135 111 104 148 182 184 173 170 171 172 173 158 168 180 183 174 149 141 135 128 145 156 134 178 221 230 207 186 203 230 311 216 241 244 228 182 164 179 150 168 229 201 155 201 244 258 305 304 257 124 135 181 215 214 215 217 213 209 205 202 203 206
155 178 178 188 203 211 226 292 85 163 191 179 176 178 180 185 205 186 173 168 174 160 134 158 160 138 132 142 138 166 195 203 172 147 159 180 215 237 184 190 192 188 161 146 139 122 97 184 194 207 223 230 228 219 173 142 153 204 221 219 220 214 199 186 159 188 208 178 189 223 217 238 287 240 229 246 196 205 226 216 216 220 217 213 208 206 208 213
120 183 175 164 212 217 227 257 234 201 35 162 164 177 181 177 152 164 176 171 166 162 142 17 147 160 173 169 164 179 188 188 173 158 155 174 202 209 142 150 174 174 158 156 156 130 100 216 213 209 224 235 233 215 167 160 194 208 213 218 218 213 194 190 206 205 158 166 240 236 157 182 244 214 201 224 211 211 226 217 217 219 218 215 211 210 214 219
158 189 180 174 184 194 212 234 214 202 353 52 120 313 183 188 189 171 176 140 134 158 150 354 280 194 167 159 159 168 171 172 179 173 149 134 146 115 96 64 113 158 150 149 165 137 123 230 211 198 225 235 211 153 166 179 202 199 206 221 219 209 200 203 217 212 175 211 255 229 152 206 244 214 195 214 212 212 220 221 222 221 219 216 213 215 220 224
169 163 179 189 190 173 215 208 168 195 222 175 162 220 197 208 211 182 130 96 63 188 169 193 249 223 170 148 130 140 171 174 182 183 158 156 160 137 131 176 171 170 152 138 170 158 152 220 183 177 221 222 137 127 191 180 197 205 228 233 219 209 207 205 220 226 209 247 284 321 194 235 243 189 198 224 223 224 233 234 229 225 223 219 217 221 227 230
187 190 178 178 199 330 254 196 153 192 217 191 206 217 190 202 208 185 128 146 157 190 181 198 219 190 167 173 175 205 215 181 168 183 166 155 153 154 182 181 151 170 172 151 171 187 181 193 116 139 201 201 127 91 83 150 189 213 245 244 217 182 198 204 215 213 182 268 275 269 260 263 244 164 198 243 245 234 244 244 238 235 231 225 223 227 232 238
205 203 185 163 188 189 177 179 156 172 212 195 207 199 177 212 207 161 159 215 193 177 176 197 208 155 151 187 199 221 226 199 192 200 182 180 195 199 208 190 153 152 174 171 163 178 193 205 73 126 198 216 171 157 136 102 76 257 255 246 211 180 200 201 203 198 194 224 244 249 258 263 243 140 188 242 239 230 238 242 244 248 246 239 238 240 245 253
210 210 201 187 192 182 176 161 153 186 219 199 200 198 189 215 188 151 199 261 216 202 200 197 188 146 161 203 212 230 235 223 230 236 207 206 215 205 205 187 164 159 168 172 159 155 174 168 129 169 200 202 161 161 137 93 42 268 258 233 199 207 219 208 232 224 210 206 215 232 246 249 191 144 182 235 232 227 239 244 245 250 251 251 252 254 259 265